This is the latest recevied weather packets stored in our database for station/object ES2ADF-5. If no packets are shown the sender has not sent any weather packets the latest 10 day(s).
| Time | Temp. | Humidity | Pressure | Rain* | Wind** | Luminosity | Snow |
|---|---|---|---|---|---|---|---|
| 1777967123 | 13.89° C | 56% | 1003.3 hPa | 0 mm | - | - | - |
| 1777966822 | 13.89° C | 56% | 1003.3 hPa | 0 mm | - | - | - |
| 1777966522 | 13.89° C | 55% | 1003.3 hPa | 0 mm | - | - | - |
| 1777966222 | 14.44° C | 53% | 1003.2 hPa | 0 mm | - | - | - |
| 1777965921 | 14.44° C | 52% | 1003.2 hPa | 0 mm | - | - | - |
| 1777965621 | 15° C | 51% | 1003.1 hPa | 0 mm | - | - | - |
| 1777965321 | 15.56° C | 49% | 1003 hPa | 0 mm | - | - | - |
| 1777965021 | 16.67° C | 47% | 1002.9 hPa | 0 mm | - | - | - |
| 1777964720 | 17.78° C | 45% | 1002.9 hPa | 0 mm | - | - | - |
| 1777964420 | 19.44° C | 45% | 1003 hPa | 0 mm | - | - | - |
| 1777964120 | 20° C | 43% | 1002.9 hPa | 0 mm | - | - | - |
| 1777963819 | 20° C | 43% | 1002.9 hPa | 0 mm | - | - | - |
| 1777963519 | 20° C | 43% | 1002.9 hPa | 0 mm | - | - | - |
| 1777963219 | 20.56° C | 43% | 1003 hPa | 0 mm | - | - | - |
| 1777962918 | 20.56° C | 43% | 1003 hPa | 0 mm | - | - | - |
| 1777962618 | 20° C | 43% | 1002.8 hPa | 0 mm | - | - | - |
| 1777962318 | 20° C | 43% | 1003 hPa | 0 mm | - | - | - |
| 1777962018 | 20.56° C | 42% | 1002.8 hPa | 0 mm | - | - | - |
| 1777961717 | 20.56° C | 42% | 1002.9 hPa | 0 mm | - | - | - |
| 1777961417 | 20.56° C | 41% | 1002.9 hPa | 0 mm | - | - | - |
| 1777961117 | 21.11° C | 43% | 1002.8 hPa | 0 mm | - | - | - |
| 1777960816 | 20.56° C | 43% | 1003 hPa | 0 mm | - | - | - |
| 1777960516 | 20.56° C | 43% | 1003.1 hPa | 0 mm | - | - | - |
| 1777960216 | 20° C | 44% | 1003.1 hPa | 0 mm | - | - | - |
| 1777959916 | 20° C | 43% | 1003.1 hPa | 0 mm | - | - | - |
* Rain latest hour (hover to see other rain measurements)
** Current wind speed in m/s (hover to see current wind gust speed)